Regional Weather Roundup
Issued by NWS Portland, ME

Current Version | Previous Version | Text Only | Print | Product List | Glossary Off
Versions: 1 2 3 4 5 6 7 8 9 10 11 12 13 14 15 16 17 18 19 20 21 22 23 24 25 26 27 28 29 30 31 32 33 34 35 36 37 38 39 40 41 42 43 44 45 46 47 48 49 50
000 ASUS41 KGYX 180910 RWRGYX WEATHER ROUNDUP FOR MAINE AND NEW HAMPSHIRE NATIONAL WEATHER SERVICE GRAY ME 500 AM EDT FRI AUG 18 2017 MEZ002-005-006-010-012-015-018-020-021-024-026-027-029-181000- MAINE CITY SKY/WX TMP DP RH WIND PRES REMARKS PORTLAND CLOUDY 61 54 77 VRB3 29.97F SANFORD CLOUDY 58 56 93 W3 29.97F BAR HARBOR PTCLDY 51 48 89 CALM 29.99S WISCASSET CLOUDY 56 52 86 CALM 30.00S ROCKLAND CLOUDY 53 52 96 CALM 29.98S FRYEBURG CLOUDY 56 56 100 CALM 29.99F LEWISTONAUBURN CLOUDY 56 54 93 N3 29.98F AUGUSTA CLOUDY 58 50 75 CALM 29.99S WATERVILLE CLOUDY 55 53 93 CALM 29.96F BANGOR MOCLDY 51 48 89 CALM 29.99S GREENVILLE N/A 53 51 93 CALM 29.98S MILLINOCKET CLOUDY 53 52 96 CALM 30.00S HOULTON MOCLDY 48 48 100 CALM 29.98S PRESQUE ISLE CLOUDY 48 47 96 CALM 30.00R FRENCHVILLE CLOUDY 49 47 93 NW3 29.98S CARIBOU CLOUDY 50 48 93 CALM 29.98R $$ NHZ002-005-008-009-011-012-014-181000- NEW HAMPSHIRE CITY SKY/WX TMP DP RH WIND PRES REMARKS PORTSMOUTH CLOUDY 65 56 72 NE5 29.93F ROCHESTER MOCLDY 61 55 81 N3 29.95F NASHUA CLOUDY 64 60 87 CALM 29.95F MANCHESTER CLOUDY 65 55 70 NE3 29.93F CONCORD CLOUDY 61 57 87 CALM 29.95F LACONIA CLOUDY 65 60 84 NE6 29.96F PLYMOUTH CLOUDY 57 56 96 CALM 29.97F BERLIN CLOUDY 54 50 86 CALM 29.99S WHITEFIELD CLOUDY 56 52 86 CALM 29.95F JAFFREY CLOUDY 63 60 90 CALM 29.96F KEENE N/A N/A N/A N/A MISG N/A LEBANON LGT RAIN 62 60 93 CALM 29.92F MT WASHINGTON LGT RAIN 45 43 93 SW29G37 N/A $$ VTZ005-007-008-181000- VERMONT CITY SKY/WX TMP DP RH WIND PRES REMARKS ST JOHNSBURY N/A 57 56 96 MISG 29.93F MONTPELIER LGT RAIN 58 57 97 CALM 29.96F BURLINGTON CLOUDY 69 55 60 SE7 29.84F $$ MAZ007-012-024-CTZ003-RIZ002-NYZ038-NYZ072-181000- SOUTHERN NEW ENGLAND AND NY CITY SKY/WX TMP DP RH WIND PRES REMARKS BOSTON MOCLDY 65 59 81 SE3 29.96F WORCESTER CLOUDY 64 57 78 S7 29.97S NANTUCKET PTCLDY 64 64 100 S7 29.99F PROVIDENCE CLOUDY 67 65 93 CALM 29.97F HARTFORD CLOUDY 69 64 84 S6 29.94S ALBANY CLOUDY 72 63 73 S12G21 29.85F NEW YORK CITY CLOUDY 76 73 91 S8 29.89F $$ ANZ081-ANZ082-ANZ150-NHZ014-MEZ023>029-181000- COASTAL MARINE OBSERVATIONS STATION/POSITION TIME TEMP WIND PRES WAVE AIR SEA DIR/SP/G HT/PER (UTC) (F) (DEG/KT/KT) (MB) (FT/S) MOUNT DESERT ROC 0900 61 1015.3R MATINICUS ROCK 0800 64 50/ 10/ 10 1014.8R ISLE OF SHOALS 0800 69 40/ 9/ 9 1014.3F JEFFREYS LEDGE 0806 64 N/A 2/10 CASHES LEDGE BUO 0850 66 68 1015.0F 3/ 8 GEORGES BANK BUO 0750 64 64 1015.8 3/ 8 $$ .............KEY.............. WCI - WIND CHILL TC - TEMPERATURE IN CELSIUS VSB - VISIBILITY IN MILES HX - HEAT INDEX FAIR- INDICATES FEW OR NO CLOUDS BELOW 12,000 FT, WITH NO SIGNIFICANT WEATHER AND/OR OBSTRUCTIONS TO VISIBILITY.

USA.gov is the U.S. government's official web portal to all federal, state and local government web resources and services.